Year,Month,Day,Hour,Minute,Value (Times are PST for temperature in C)
2013,05,01,00,00,7.70
2013,05,01,00,01,7.70
2013,05,01,00,02,7.70
2013,05,01,00,03,7.70
2013,05,01,00,04,7.70
2013,05,01,00,05,7.70
2013,05,01,00,06,7.70
2013,05,01,00,07,7.60
2013,05,01,00,08,7.60
2013,05,01,00,09,7.60
2013,05,01,00,10,7.60
2013,05,01,00,11,7.60
2013,05,01,00,12,7.50
2013,05,01,00,13,7.50
2013,05,01,00,14,7.50
2013,05,01,00,15,7.40
2013,05,01,00,16,7.40
2013,05,01,00,17,7.40
2013,05,01,00,18,7.40
2013,05,01,00,19,7.30
2013,05,01,00,20,7.30
2013,05,01,00,21,7.30
2013,05,01,00,22,7.30
2013,05,01,00,23,7.30
2013,05,01,00,24,7.30
2013,05,01,00,25,7.20
2013,05,01,00,26,7.20
2013,05,01,00,27,7.20
2013,05,01,00,28,7.20
2013,05,01,00,29,7.20
2013,05,01,00,30,7.20
2013,05,01,00,31,7.10
2013,05,01,00,32,7.10
2013,05,01,00,33,7.10
2013,05,01,00,34,7.10
2013,05,01,00,35,7.00
2013,05,01,00,36,7.00
2013,05,01,00,37,7.00
2013,05,01,00,38,6.90
2013,05,01,00,39,6.90
2013,05,01,00,40,6.90
2013,05,01,00,41,6.90
2013,05,01,00,42,6.90
2013,05,01,00,43,6.90
2013,05,01,00,44,6.80
2013,05,01,00,45,6.80
2013,05,01,00,46,6.80
2013,05,01,00,47,6.80
2013,05,01,00,48,6.80
2013,05,01,00,49,6.80
2013,05,01,00,50,6.80
2013,05,01,00,51,6.80
2013,05,01,00,52,6.80
2013,05,01,00,53,6.80
2013,05,01,00,54,6.70
2013,05,01,00,55,6.70
2013,05,01,00,56,6.70
2013,05,01,00,57,6.70
2013,05,01,00,58,6.70
2013,05,01,00,59,6.60
2013,05,01,01,00,6.60
2013,05,01,01,01,6.60
2013,05,01,01,02,6.60
2013,05,01,01,03,6.60
2013,05,01,01,04,6.50
2013,05,01,01,05,6.50
2013,05,01,01,06,6.50
2013,05,01,01,07,6.40
2013,05,01,01,08,6.40
2013,05,01,01,09,6.40
2013,05,01,01,10,6.40
2013,05,01,01,11,6.40
2013,05,01,01,12,6.40
2013,05,01,01,13,6.30
2013,05,01,01,14,6.30
2013,05,01,01,15,6.30
2013,05,01,01,16,6.30
2013,05,01,01,17,6.30
2013,05,01,01,18,6.30
2013,05,01,01,19,6.30
2013,05,01,01,20,6.30
2013,05,01,01,21,6.30
2013,05,01,01,22,6.20
2013,05,01,01,23,6.20
2013,05,01,01,24,6.20
2013,05,01,01,25,6.20
2013,05,01,01,26,6.20
2013,05,01,01,27,6.20
2013,05,01,01,28,6.20
2013,05,01,01,29,6.20
2013,05,01,01,30,6.20
2013,05,01,01,31,6.20
2013,05,01,01,32,6.10
2013,05,01,01,33,6.10
2013,05,01,01,34,6.10
2013,05,01,01,35,6.10
2013,05,01,01,36,6.10
2013,05,01,01,37,6.10
2013,05,01,01,38,6.10
2013,05,01,01,39,6.10
2013,05,01,01,40,6.20
2013,05,01,01,41,6.20
2013,05,01,01,42,6.20
2013,05,01,01,43,6.20
2013,05,01,01,44,6.20
2013,05,01,01,45,6.20
2013,05,01,01,46,6.20
2013,05,01,01,47,6.20
2013,05,01,01,48,6.20
2013,05,01,01,49,6.20
2013,05,01,01,50,6.20
2013,05,01,01,51,6.20
2013,05,01,01,52,6.20
2013,05,01,01,53,6.20
2013,05,01,01,54,6.20
2013,05,01,01,55,6.20
2013,05,01,01,56,6.20
2013,05,01,01,57,6.20
2013,05,01,01,58,6.20
2013,05,01,01,59,6.20
2013,05,01,02,00,6.20
2013,05,01,02,01,6.20
2013,05,01,02,02,6.20
2013,05,01,02,03,6.20
2013,05,01,02,04,6.20
2013,05,01,02,05,6.20
2013,05,01,02,06,6.20
2013,05,01,02,07,6.20
2013,05,01,02,08,6.10
2013,05,01,02,09,6.10
2013,05,01,02,10,6.10
2013,05,01,02,11,6.10
2013,05,01,02,12,6.10
2013,05,01,02,13,6.10
2013,05,01,02,14,6.10
2013,05,01,02,15,6.00
2013,05,01,02,16,6.00
2013,05,01,02,17,6.00
2013,05,01,02,18,6.00
2013,05,01,02,19,6.00
2013,05,01,02,20,5.90
2013,05,01,02,21,5.90
2013,05,01,02,22,5.90
2013,05,01,02,23,5.90
2013,05,01,02,24,5.90
2013,05,01,02,25,5.90
2013,05,01,02,26,5.90
2013,05,01,02,27,5.90
2013,05,01,02,28,5.90
2013,05,01,02,29,5.80
2013,05,01,02,30,5.80
2013,05,01,02,31,5.80
2013,05,01,02,32,5.80
2013,05,01,02,33,5.80
2013,05,01,02,34,5.80
2013,05,01,02,35,5.70
2013,05,01,02,36,5.70
2013,05,01,02,37,5.70
2013,05,01,02,38,5.70
2013,05,01,02,39,5.70
2013,05,01,02,40,5.70
2013,05,01,02,41,5.70
2013,05,01,02,42,5.70
2013,05,01,02,43,5.70
2013,05,01,02,44,5.70
2013,05,01,02,45,5.70
2013,05,01,02,46,5.70
2013,05,01,02,47,5.70
2013,05,01,02,48,5.70
2013,05,01,02,49,5.70
2013,05,01,02,50,5.60
2013,05,01,02,51,5.60
2013,05,01,02,52,5.60
2013,05,01,02,53,5.60
2013,05,01,02,54,5.60
2013,05,01,02,55,5.60
2013,05,01,02,56,5.60
2013,05,01,02,57,5.60
2013,05,01,02,58,5.50
2013,05,01,02,59,5.50
2013,05,01,03,00,5.50
2013,05,01,03,01,5.50
2013,05,01,03,02,5.50
2013,05,01,03,06,5.40
2013,05,01,03,07,5.40
2013,05,01,03,08,5.30
2013,05,01,03,09,5.30
2013,05,01,03,10,5.30
2013,05,01,03,11,5.30
2013,05,01,03,12,5.30
2013,05,01,03,13,5.30
2013,05,01,03,14,5.20
2013,05,01,03,15,5.20
2013,05,01,03,16,5.20
2013,05,01,03,17,5.20
2013,05,01,03,18,5.20
2013,05,01,03,19,5.20
2013,05,01,03,20,5.20
2013,05,01,03,21,5.10
2013,05,01,03,22,5.10
2013,05,01,03,23,5.10
2013,05,01,03,24,5.10
2013,05,01,03,25,5.10
2013,05,01,03,26,5.10
2013,05,01,03,27,5.00
2013,05,01,03,28,5.00
2013,05,01,03,29,5.00
2013,05,01,03,30,5.00
2013,05,01,03,31,4.90
2013,05,01,03,32,4.90
2013,05,01,03,33,4.90
2013,05,01,03,34,4.80
2013,05,01,03,35,4.80
2013,05,01,03,36,4.80
2013,05,01,03,37,4.80
2013,05,01,03,38,4.80
2013,05,01,03,39,4.70
2013,05,01,03,40,4.70
2013,05,01,03,41,4.70
2013,05,01,03,42,4.70
2013,05,01,03,43,4.70
2013,05,01,03,44,4.60
2013,05,01,03,45,4.60
2013,05,01,03,46,4.60
2013,05,01,03,47,4.50
2013,05,01,03,48,4.50
2013,05,01,03,49,4.40
2013,05,01,03,50,4.40
2013,05,01,03,51,4.40
2013,05,01,03,52,4.30
2013,05,01,03,53,4.30
2013,05,01,03,54,4.30
2013,05,01,03,55,4.30
2013,05,01,03,56,4.30
2013,05,01,03,57,4.20
2013,05,01,03,58,4.20
2013,05,01,03,59,4.20
2013,05,01,04,00,4.20
2013,05,01,04,01,4.10
2013,05,01,04,02,4.10
2013,05,01,04,03,4.10
2013,05,01,04,04,4.00
2013,05,01,04,05,4.00
2013,05,01,04,06,4.00
2013,05,01,04,07,4.00
2013,05,01,04,08,3.90
2013,05,01,04,09,3.90
2013,05,01,04,10,3.90
2013,05,01,04,11,3.80
2013,05,01,04,12,3.80
2013,05,01,04,13,3.80
2013,05,01,04,14,3.80
2013,05,01,04,15,3.70
2013,05,01,04,16,3.70
2013,05,01,04,17,3.70
2013,05,01,04,18,3.70
2013,05,01,04,19,3.70
2013,05,01,04,20,3.70
2013,05,01,04,21,3.70
2013,05,01,04,22,3.70
2013,05,01,04,23,3.70
2013,05,01,04,24,3.60
2013,05,01,04,25,3.60
2013,05,01,04,26,3.60
2013,05,01,04,27,3.60
2013,05,01,04,28,3.60
2013,05,01,04,29,3.60
2013,05,01,04,30,3.60
2013,05,01,04,31,3.60
2013,05,01,04,32,3.60
2013,05,01,04,33,3.60
2013,05,01,04,34,3.60
2013,05,01,04,35,3.50
2013,05,01,04,36,3.50
2013,05,01,04,37,3.40
2013,05,01,04,38,3.40
2013,05,01,04,39,3.30
2013,05,01,04,40,3.20
2013,05,01,04,41,3.20
2013,05,01,04,42,3.20
2013,05,01,04,43,3.10
2013,05,01,04,44,3.10
2013,05,01,04,45,3.10
2013,05,01,04,46,3.10
2013,05,01,04,47,3.10
2013,05,01,04,48,3.00
2013,05,01,04,49,3.00
2013,05,01,04,50,3.00
2013,05,01,04,51,3.00
2013,05,01,04,52,3.00
2013,05,01,04,53,3.00
2013,05,01,04,54,3.00
2013,05,01,04,55,3.00
2013,05,01,04,56,3.00
2013,05,01,04,57,3.00
2013,05,01,04,58,3.00
2013,05,01,04,59,3.00
2013,05,01,05,00,3.00
2013,05,01,05,01,3.00
2013,05,01,05,02,2.90
2013,05,01,05,03,2.90
2013,05,01,05,04,2.90
2013,05,01,05,05,2.90
2013,05,01,05,06,2.90
2013,05,01,05,07,2.90
2013,05,01,05,08,2.90
2013,05,01,05,09,2.90
2013,05,01,05,10,2.90
2013,05,01,05,11,2.90
2013,05,01,05,12,2.90
2013,05,01,05,13,3.00
2013,05,01,05,14,2.90
2013,05,01,05,15,2.90
2013,05,01,05,16,2.90
2013,05,01,05,17,2.90
2013,05,01,05,18,2.90
2013,05,01,05,19,2.90
2013,05,01,05,20,2.90
2013,05,01,05,21,2.90
2013,05,01,05,22,2.90
2013,05,01,05,23,2.90
2013,05,01,05,24,2.90
2013,05,01,05,25,2.90
2013,05,01,05,26,2.80
2013,05,01,05,27,2.80
2013,05,01,05,28,2.80
2013,05,01,05,29,2.80
2013,05,01,05,30,2.70
2013,05,01,05,31,2.70
2013,05,01,05,32,2.70
2013,05,01,05,33,2.70
2013,05,01,05,34,2.60
2013,05,01,05,35,2.60
2013,05,01,05,36,2.60
2013,05,01,05,37,2.60
2013,05,01,05,38,2.50
2013,05,01,05,39,2.50
2013,05,01,05,40,2.50
2013,05,01,05,41,2.50
2013,05,01,05,42,2.40
2013,05,01,05,43,2.40
2013,05,01,05,44,2.40
2013,05,01,05,45,2.40
2013,05,01,05,46,2.40
2013,05,01,05,47,2.40
2013,05,01,05,48,2.40
2013,05,01,05,49,2.40
2013,05,01,05,50,2.40
2013,05,01,05,51,2.30
2013,05,01,05,52,2.30
2013,05,01,05,53,2.30
2013,05,01,05,54,2.30
2013,05,01,05,55,2.30
2013,05,01,05,56,2.30
2013,05,01,05,57,2.30
2013,05,01,05,58,2.20
2013,05,01,05,59,2.20
2013,05,01,06,00,2.20
2013,05,01,06,01,2.20
2013,05,01,06,02,2.20
2013,05,01,06,03,2.20
2013,05,01,06,04,2.20
2013,05,01,06,05,2.20
2013,05,01,06,06,2.20
2013,05,01,06,07,2.10
2013,05,01,06,08,2.10
2013,05,01,06,09,2.10
2013,05,01,06,10,2.10
2013,05,01,06,11,2.10
2013,05,01,06,12,2.10
2013,05,01,06,13,2.10
2013,05,01,06,14,2.10
2013,05,01,06,15,2.10
2013,05,01,06,16,2.10
2013,05,01,06,17,2.10
2013,05,01,06,18,2.10
2013,05,01,06,19,2.10
2013,05,01,06,20,2.10
2013,05,01,06,21,2.10
2013,05,01,06,22,2.10
2013,05,01,06,23,2.10
2013,05,01,06,24,2.10
2013,05,01,06,25,2.10
2013,05,01,06,26,2.10
2013,05,01,06,27,2.10
2013,05,01,06,28,2.10
2013,05,01,06,29,2.20
2013,05,01,06,30,2.20
2013,05,01,06,31,2.20
2013,05,01,06,32,2.20
2013,05,01,06,33,2.20
2013,05,01,06,34,2.20
2013,05,01,06,35,2.20
2013,05,01,06,36,2.20
2013,05,01,06,37,2.20
2013,05,01,06,38,2.20
2013,05,01,06,39,2.20
2013,05,01,06,40,2.20
2013,05,01,06,41,2.30
2013,05,01,06,42,2.30
2013,05,01,06,43,2.30
2013,05,01,06,44,2.40
2013,05,01,06,45,2.40
2013,05,01,06,46,2.40
2013,05,01,06,47,2.50
2013,05,01,06,48,2.50
2013,05,01,06,49,2.50
2013,05,01,06,50,2.60
2013,05,01,06,51,2.60
2013,05,01,06,52,2.60
2013,05,01,06,53,2.70
2013,05,01,06,54,2.70
2013,05,01,06,55,2.80
2013,05,01,06,56,2.80
2013,05,01,06,57,2.90
2013,05,01,06,58,2.90
2013,05,01,06,59,3.00
2013,05,01,07,00,3.10
2013,05,01,07,01,3.10
2013,05,01,07,02,3.20
2013,05,01,07,03,3.20
2013,05,01,07,04,3.20
2013,05,01,07,05,3.30
2013,05,01,07,06,3.30
2013,05,01,07,07,3.40
2013,05,01,07,08,3.40
2013,05,01,07,09,3.50
2013,05,01,07,10,3.50
2013,05,01,07,11,3.60
2013,05,01,07,12,3.60
2013,05,01,07,13,3.60
2013,05,01,07,14,3.60
2013,05,01,07,15,3.70
2013,05,01,07,16,3.70
2013,05,01,07,17,3.70
2013,05,01,07,18,3.80
2013,05,01,07,19,3.80
2013,05,01,07,20,3.80
2013,05,01,07,21,3.80
2013,05,01,07,22,3.90
2013,05,01,07,23,3.90
2013,05,01,07,24,4.00
2013,05,01,07,25,4.00
2013,05,01,07,26,4.00
2013,05,01,07,27,4.10
2013,05,01,07,28,4.10
2013,05,01,07,29,4.20
2013,05,01,07,30,4.20
2013,05,01,07,31,4.30
2013,05,01,07,32,4.30
2013,05,01,07,33,4.40
2013,05,01,07,34,4.50
2013,05,01,07,35,4.50
2013,05,01,07,36,4.60
2013,05,01,07,37,4.60
2013,05,01,07,38,4.70
2013,05,01,07,39,4.70
2013,05,01,07,40,4.70
2013,05,01,07,41,4.80
2013,05,01,07,42,4.80
2013,05,01,07,43,4.90
2013,05,01,07,44,4.90
2013,05,01,07,45,5.00
2013,05,01,07,46,5.10
2013,05,01,07,47,5.10
2013,05,01,07,48,5.20
2013,05,01,07,49,5.20
2013,05,01,07,50,5.30
2013,05,01,07,51,5.30
2013,05,01,07,52,5.40
2013,05,01,07,53,5.40
2013,05,01,07,54,5.50
2013,05,01,07,55,5.50
2013,05,01,07,56,5.60
2013,05,01,07,57,5.60
2013,05,01,07,58,5.70
2013,05,01,07,59,5.70
2013,05,01,08,00,5.80
2013,05,01,08,01,5.80
2013,05,01,08,02,5.90
2013,05,01,08,03,5.90
2013,05,01,08,04,6.00
2013,05,01,08,05,6.10
2013,05,01,08,06,6.20
2013,05,01,08,07,6.20
2013,05,01,08,08,6.30
2013,05,01,08,09,6.30
2013,05,01,08,10,6.40
2013,05,01,08,11,6.50
2013,05,01,08,12,6.50
2013,05,01,08,13,6.60
2013,05,01,08,14,6.70
2013,05,01,08,15,6.70
2013,05,01,08,16,6.80
2013,05,01,08,17,6.90
2013,05,01,08,18,7.00
2013,05,01,08,19,7.00
2013,05,01,08,20,7.10
2013,05,01,08,21,7.20
2013,05,01,08,22,7.30
2013,05,01,08,23,7.30
2013,05,01,08,24,7.40
2013,05,01,08,25,7.50
2013,05,01,08,26,7.50
2013,05,01,08,27,7.60
2013,05,01,08,28,7.70
2013,05,01,08,29,7.70
2013,05,01,08,30,7.80
2013,05,01,08,31,7.90
2013,05,01,08,32,8.00
2013,05,01,08,33,8.10
2013,05,01,08,34,8.20
2013,05,01,08,35,8.30
2013,05,01,08,36,8.50
2013,05,01,08,37,8.60
2013,05,01,08,38,8.70
2013,05,01,08,39,8.80
2013,05,01,08,40,8.90
2013,05,01,08,41,9.00
2013,05,01,08,42,9.10
2013,05,01,08,43,9.20
2013,05,01,08,44,9.20
2013,05,01,08,45,9.30
2013,05,01,08,46,9.40
2013,05,01,08,47,9.40
2013,05,01,08,48,9.50
2013,05,01,08,49,9.60
2013,05,01,08,50,9.70
2013,05,01,08,51,9.80
2013,05,01,08,52,9.80
2013,05,01,08,53,9.90
2013,05,01,08,54,9.90
2013,05,01,08,55,9.80
2013,05,01,08,56,9.80
2013,05,01,08,57,9.80
2013,05,01,08,58,9.80
2013,05,01,08,59,9.80
2013,05,01,09,00,9.80
2013,05,01,09,01,9.90
2013,05,01,09,02,9.90
2013,05,01,09,03,9.90
2013,05,01,09,04,10.00
2013,05,01,09,05,10.00
2013,05,01,09,06,10.10
2013,05,01,09,07,10.10
2013,05,01,09,08,10.20
2013,05,01,09,09,10.20
2013,05,01,09,10,10.20
2013,05,01,09,11,10.20
2013,05,01,09,12,10.30
2013,05,01,09,13,10.30
2013,05,01,09,14,10.30
2013,05,01,09,15,10.30
2013,05,01,09,16,10.30
2013,05,01,09,17,10.30
2013,05,01,09,18,10.30
2013,05,01,09,19,10.30
2013,05,01,09,20,10.30
2013,05,01,09,21,10.30
2013,05,01,09,22,10.30
2013,05,01,09,23,10.30
2013,05,01,09,24,10.30
2013,05,01,09,25,10.30
2013,05,01,09,26,10.30
2013,05,01,09,27,10.40
2013,05,01,09,28,10.50
2013,05,01,09,29,10.50
2013,05,01,09,30,10.60
2013,05,01,09,31,10.60
2013,05,01,09,32,10.70
2013,05,01,09,33,10.60
2013,05,01,09,34,10.60
2013,05,01,09,35,10.50
2013,05,01,09,36,10.40
2013,05,01,09,37,10.40
2013,05,01,09,38,10.50
2013,05,01,09,39,10.50
2013,05,01,09,40,10.50
2013,05,01,09,41,10.60
2013,05,01,09,42,10.60
2013,05,01,09,43,10.70
2013,05,01,09,44,10.70
2013,05,01,09,45,10.70
2013,05,01,09,46,10.70
2013,05,01,09,47,10.70
2013,05,01,09,48,10.70
2013,05,01,09,49,10.70
2013,05,01,09,50,10.60
2013,05,01,09,51,10.60
2013,05,01,09,52,10.50
2013,05,01,09,53,10.50
2013,05,01,09,54,10.40
2013,05,01,09,55,10.40
2013,05,01,09,56,10.40
2013,05,01,09,57,10.40
2013,05,01,09,58,10.40
2013,05,01,09,59,10.40
2013,05,01,10,00,10.40
2013,05,01,10,01,10.40
2013,05,01,10,02,10.40
2013,05,01,10,03,10.40
2013,05,01,10,04,10.40
2013,05,01,10,05,10.40
2013,05,01,10,06,10.40
2013,05,01,10,07,10.40
2013,05,01,10,08,10.40
2013,05,01,10,09,10.40
2013,05,01,10,10,10.40
2013,05,01,10,11,10.50
2013,05,01,10,12,10.50
2013,05,01,10,13,10.50
2013,05,01,10,14,10.60
2013,05,01,10,15,10.60
2013,05,01,10,16,10.60
2013,05,01,10,17,10.60
2013,05,01,10,18,10.70
2013,05,01,10,19,10.70
2013,05,01,10,20,10.70
2013,05,01,10,21,10.80
2013,05,01,10,22,10.80
2013,05,01,10,23,10.80
2013,05,01,10,24,10.90
2013,05,01,10,25,10.90
2013,05,01,10,26,11.00
2013,05,01,10,27,11.00
2013,05,01,10,28,11.10
2013,05,01,10,29,11.10
2013,05,01,10,30,11.20
2013,05,01,10,31,11.20
2013,05,01,10,32,11.20
2013,05,01,10,33,11.20
2013,05,01,10,34,11.20
2013,05,01,10,35,11.10
2013,05,01,10,36,11.10
2013,05,01,10,37,11.10
2013,05,01,10,38,11.10
2013,05,01,10,39,11.10
2013,05,01,10,40,11.10
2013,05,01,10,41,11.10
2013,05,01,10,42,11.10
2013,05,01,10,43,11.10
2013,05,01,10,44,11.20
2013,05,01,10,45,11.20
2013,05,01,10,46,11.20
2013,05,01,10,47,11.20
2013,05,01,10,48,11.20
2013,05,01,10,49,11.20
2013,05,01,10,50,11.20
2013,05,01,10,51,11.30
2013,05,01,10,52,11.30
2013,05,01,10,53,11.30
2013,05,01,10,54,11.40
2013,05,01,10,55,11.50
2013,05,01,10,56,11.50
2013,05,01,10,57,11.60
2013,05,01,10,58,11.60
2013,05,01,10,59,11.60
2013,05,01,11,00,11.60
2013,05,01,11,01,11.60
2013,05,01,11,02,11.60
2013,05,01,11,03,11.60
2013,05,01,11,04,11.60
2013,05,01,11,05,11.50
2013,05,01,11,06,11.50
2013,05,01,11,07,11.50
2013,05,01,11,08,11.50
2013,05,01,11,09,11.60
2013,05,01,11,10,11.60
2013,05,01,11,11,11.70
2013,05,01,11,12,11.70
2013,05,01,11,13,11.70
2013,05,01,11,14,11.80
2013,05,01,11,15,11.80
2013,05,01,11,16,11.80
2013,05,01,11,17,11.90
2013,05,01,11,18,11.90
2013,05,01,11,19,11.90
2013,05,01,11,20,11.90
2013,05,01,11,21,11.90
2013,05,01,11,22,11.90
2013,05,01,11,23,11.90
2013,05,01,11,24,12.00
2013,05,01,11,25,12.00
2013,05,01,11,26,12.00
2013,05,01,11,27,12.00
2013,05,01,11,28,12.00
2013,05,01,11,29,11.90
2013,05,01,11,30,11.90
2013,05,01,11,31,11.80
2013,05,01,11,32,11.80
2013,05,01,11,33,11.80
2013,05,01,11,34,11.90
2013,05,01,11,35,11.90
2013,05,01,11,36,11.80
2013,05,01,11,37,11.90
2013,05,01,11,38,11.90
2013,05,01,11,39,11.90
2013,05,01,11,40,12.00
2013,05,01,11,41,12.10
2013,05,01,11,42,12.10
2013,05,01,11,43,12.20
2013,05,01,11,44,12.20
2013,05,01,11,45,12.20
2013,05,01,11,46,12.30
2013,05,01,11,47,12.30
2013,05,01,11,48,12.40
2013,05,01,11,49,12.50
2013,05,01,11,50,12.50
2013,05,01,11,51,12.50
2013,05,01,11,52,12.60
2013,05,01,11,53,12.50
2013,05,01,11,54,12.50
2013,05,01,11,55,12.50
2013,05,01,11,56,12.60
2013,05,01,11,57,12.60
2013,05,01,11,58,12.60
2013,05,01,11,59,12.60
2013,05,01,12,00,12.60
2013,05,01,12,01,12.70
2013,05,01,12,02,12.70
2013,05,01,12,03,12.70
2013,05,01,12,04,12.70
2013,05,01,12,05,12.70
2013,05,01,12,06,12.70
2013,05,01,12,07,12.70
2013,05,01,12,08,12.70
2013,05,01,12,09,12.70
2013,05,01,12,10,12.80
2013,05,01,12,11,12.80
2013,05,01,12,12,12.80
2013,05,01,12,13,12.80
2013,05,01,12,14,12.90
2013,05,01,12,15,12.90
2013,05,01,12,16,12.90
2013,05,01,12,17,13.00
2013,05,01,12,18,13.00
2013,05,01,12,19,13.00
2013,05,01,12,20,12.90
2013,05,01,12,21,13.00
2013,05,01,12,22,13.00
2013,05,01,12,23,13.10
2013,05,01,12,24,13.10
2013,05,01,12,25,13.20
2013,05,01,12,26,13.20
2013,05,01,12,27,13.30
2013,05,01,12,28,13.40
2013,05,01,12,29,13.40
2013,05,01,12,30,13.50
2013,05,01,12,31,13.60
2013,05,01,12,32,13.60
2013,05,01,12,33,13.70
2013,05,01,12,34,13.70
2013,05,01,12,35,13.70
2013,05,01,12,36,13.60
2013,05,01,12,37,13.60
2013,05,01,12,38,13.60
2013,05,01,12,39,13.60
2013,05,01,12,40,13.60
2013,05,01,12,41,13.50
2013,05,01,12,42,13.50
2013,05,01,12,43,13.50
2013,05,01,12,44,13.50
2013,05,01,12,45,13.50
2013,05,01,12,46,13.50
2013,05,01,12,47,13.40
2013,05,01,12,48,13.40
2013,05,01,12,49,13.40
2013,05,01,12,50,13.40
2013,05,01,12,51,13.40
2013,05,01,12,52,13.30
2013,05,01,12,53,13.30
2013,05,01,12,54,13.30
2013,05,01,12,55,13.30
2013,05,01,12,56,13.20
2013,05,01,12,57,13.20
2013,05,01,12,58,13.10
2013,05,01,12,59,13.10
2013,05,01,13,00,13.10
2013,05,01,13,01,13.10
2013,05,01,13,02,13.10
2013,05,01,13,03,13.10
2013,05,01,13,04,13.10
2013,05,01,13,05,13.10
2013,05,01,13,06,13.10
2013,05,01,13,07,13.10
2013,05,01,13,08,13.20
2013,05,01,13,09,13.20
2013,05,01,13,10,13.20
2013,05,01,13,11,13.20
2013,05,01,13,12,13.20
2013,05,01,13,13,13.30
2013,05,01,13,14,13.30
2013,05,01,13,15,13.40
2013,05,01,13,16,13.50
2013,05,01,13,17,13.60
2013,05,01,13,18,13.70
2013,05,01,13,19,13.80
2013,05,01,13,20,13.80
2013,05,01,13,21,13.80
2013,05,01,13,22,13.80
2013,05,01,13,23,13.90
2013,05,01,13,24,13.90
2013,05,01,13,25,13.90
2013,05,01,13,26,13.90
2013,05,01,13,27,14.00
2013,05,01,13,28,14.00
2013,05,01,13,29,14.00
2013,05,01,13,30,13.90
2013,05,01,13,31,14.00
2013,05,01,13,32,14.00
2013,05,01,13,33,14.10
2013,05,01,13,34,14.10
2013,05,01,13,35,14.10
2013,05,01,13,36,14.10
2013,05,01,13,37,14.10
2013,05,01,13,38,14.20
2013,05,01,13,39,14.20
2013,05,01,13,40,14.30
2013,05,01,13,41,14.30
2013,05,01,13,42,14.30
2013,05,01,13,43,14.30
2013,05,01,13,44,14.40
2013,05,01,13,45,14.40
2013,05,01,13,46,14.50
2013,05,01,13,47,14.40
2013,05,01,13,48,14.50
2013,05,01,13,49,14.50
2013,05,01,13,50,14.40
2013,05,01,13,51,14.40
2013,05,01,13,52,14.30
2013,05,01,13,53,14.20
2013,05,01,13,54,14.20
2013,05,01,13,55,14.20
2013,05,01,13,56,14.20
2013,05,01,13,57,14.20
2013,05,01,13,58,14.20
2013,05,01,13,59,14.30
2013,05,01,14,00,14.30
2013,05,01,14,01,14.40
2013,05,01,14,02,14.40
2013,05,01,14,03,14.50
2013,05,01,14,04,14.50
2013,05,01,14,05,14.50
2013,05,01,14,06,14.60
2013,05,01,14,07,14.60
2013,05,01,14,08,14.60
2013,05,01,14,09,14.60
2013,05,01,14,10,14.60
2013,05,01,14,11,14.60
2013,05,01,14,12,14.60
2013,05,01,14,13,14.70
2013,05,01,14,14,14.80
2013,05,01,14,15,14.90
2013,05,01,14,16,14.90
2013,05,01,14,17,14.90
2013,05,01,14,18,15.00
2013,05,01,14,19,14.90
2013,05,01,14,20,14.90
2013,05,01,14,21,14.90
2013,05,01,14,22,14.80
2013,05,01,14,23,14.80
2013,05,01,14,24,14.70
2013,05,01,14,25,14.70
2013,05,01,14,26,14.80
2013,05,01,14,27,14.80
2013,05,01,14,28,14.80
2013,05,01,14,29,14.90
2013,05,01,14,30,14.90
2013,05,01,14,31,15.00
2013,05,01,14,32,15.00
2013,05,01,14,33,15.00
2013,05,01,14,34,15.00
2013,05,01,14,35,14.90
2013,05,01,14,36,14.90
2013,05,01,14,37,14.90
2013,05,01,14,38,14.80
2013,05,01,14,39,14.80
2013,05,01,14,40,14.80
2013,05,01,14,41,14.80
2013,05,01,14,42,14.80
2013,05,01,14,43,14.80
2013,05,01,14,44,14.80
2013,05,01,14,45,14.80
2013,05,01,14,46,14.90
2013,05,01,14,47,14.90
2013,05,01,14,48,14.90
2013,05,01,14,49,15.00
2013,05,01,14,50,15.10
2013,05,01,14,51,15.20
2013,05,01,14,52,15.20
2013,05,01,14,53,15.20
2013,05,01,14,54,15.20
2013,05,01,14,55,15.10
2013,05,01,14,56,15.10
2013,05,01,14,57,15.00
2013,05,01,14,58,15.00
2013,05,01,14,59,15.00
2013,05,01,15,00,15.10
2013,05,01,15,01,15.20
2013,05,01,15,02,15.30
2013,05,01,15,03,15.30
2013,05,01,15,04,15.30
2013,05,01,15,05,15.30
2013,05,01,15,06,15.30
2013,05,01,15,07,15.30
2013,05,01,15,08,15.30
2013,05,01,15,09,15.20
2013,05,01,15,10,15.20
2013,05,01,15,11,15.10
2013,05,01,15,12,15.10
2013,05,01,15,13,15.10
2013,05,01,15,14,15.10
2013,05,01,15,15,15.10
2013,05,01,15,16,15.20
2013,05,01,15,17,15.20
2013,05,01,15,18,15.20
2013,05,01,15,19,15.20
2013,05,01,15,20,15.20
2013,05,01,15,21,15.10
2013,05,01,15,22,15.10
2013,05,01,15,23,15.20
2013,05,01,15,24,15.30
2013,05,01,15,25,15.30
2013,05,01,15,26,15.40
2013,05,01,15,27,15.40
2013,05,01,15,28,15.40
2013,05,01,15,29,15.30
2013,05,01,15,30,15.30
2013,05,01,15,31,15.30
2013,05,01,15,32,15.20
2013,05,01,15,33,15.10
2013,05,01,15,34,15.10
2013,05,01,15,35,15.10
2013,05,01,15,36,15.10
2013,05,01,15,37,15.10
2013,05,01,15,38,15.20
2013,05,01,15,39,15.20
2013,05,01,15,40,15.20
2013,05,01,15,41,15.30
2013,05,01,15,42,15.30
2013,05,01,15,43,15.30
2013,05,01,15,44,15.30
2013,05,01,15,45,15.30
2013,05,01,15,46,15.30
2013,05,01,15,47,15.40
2013,05,01,15,48,15.40
2013,05,01,15,49,15.50
2013,05,01,15,50,15.60
2013,05,01,15,51,15.60
2013,05,01,15,52,15.50
2013,05,01,15,53,15.40
2013,05,01,15,54,15.40
2013,05,01,15,55,15.50
2013,05,01,15,56,15.60
2013,05,01,15,57,15.70
2013,05,01,15,58,15.80
2013,05,01,15,59,15.80
2013,05,01,16,00,16.00
2013,05,01,16,01,16.00
2013,05,01,16,02,16.20
2013,05,01,16,03,16.20
2013,05,01,16,04,16.30
2013,05,01,16,05,16.40
2013,05,01,16,06,16.50
2013,05,01,16,07,16.50
2013,05,01,16,08,16.60
2013,05,01,16,09,16.60
2013,05,01,16,10,16.60
2013,05,01,16,11,16.60
2013,05,01,16,12,16.60
2013,05,01,16,13,16.60
2013,05,01,16,14,16.50
2013,05,01,16,15,16.60
2013,05,01,16,16,16.60
2013,05,01,16,17,16.60
2013,05,01,16,18,16.70
2013,05,01,16,19,16.60
2013,05,01,16,20,16.60
2013,05,01,16,21,16.60
2013,05,01,16,22,16.60
2013,05,01,16,23,16.70
2013,05,01,16,24,16.70
2013,05,01,16,25,16.70
2013,05,01,16,26,16.70
2013,05,01,16,27,16.60
2013,05,01,16,28,16.60
2013,05,01,16,29,16.50
2013,05,01,16,30,16.40
2013,05,01,16,31,16.40
2013,05,01,16,32,16.30
2013,05,01,16,33,16.20
2013,05,01,16,34,16.20
2013,05,01,16,35,16.10
2013,05,01,16,36,16.20
2013,05,01,16,37,16.20
2013,05,01,16,38,16.20
2013,05,01,16,39,16.20
2013,05,01,16,40,16.20
2013,05,01,16,41,16.20
2013,05,01,16,42,16.20
2013,05,01,16,43,16.20
2013,05,01,16,44,16.20
2013,05,01,16,45,16.10
2013,05,01,16,46,16.10
2013,05,01,16,47,16.10
2013,05,01,16,48,16.10
2013,05,01,16,49,16.20
2013,05,01,16,50,16.20
2013,05,01,16,51,16.20
2013,05,01,16,52,16.20
2013,05,01,16,53,16.10
2013,05,01,16,54,16.00
2013,05,01,16,55,16.00
2013,05,01,16,56,15.90
2013,05,01,16,57,15.80
2013,05,01,16,58,15.80
2013,05,01,16,59,15.90
2013,05,01,17,00,15.90
2013,05,01,17,01,16.00
2013,05,01,17,02,16.10
2013,05,01,17,03,16.10
2013,05,01,17,04,16.20
2013,05,01,17,05,16.20
2013,05,01,17,06,16.20
2013,05,01,17,07,16.20
2013,05,01,17,08,16.20
2013,05,01,17,09,16.20
2013,05,01,17,10,16.20
2013,05,01,17,11,16.10
2013,05,01,17,12,16.10
2013,05,01,17,13,16.20
2013,05,01,17,14,16.20
2013,05,01,17,15,16.20
2013,05,01,17,16,16.10
2013,05,01,17,17,16.10
2013,05,01,17,18,16.10
2013,05,01,17,19,16.10
2013,05,01,17,20,16.00
2013,05,01,17,21,16.00
2013,05,01,17,22,15.90
2013,05,01,17,23,15.90
2013,05,01,17,24,15.90
2013,05,01,17,25,16.00
2013,05,01,17,26,16.00
2013,05,01,17,27,16.10
2013,05,01,17,28,16.10
2013,05,01,17,29,16.10
2013,05,01,17,30,16.10
2013,05,01,17,31,16.10
2013,05,01,17,32,16.10
2013,05,01,17,33,16.10
2013,05,01,17,34,16.10
2013,05,01,17,35,16.10
2013,05,01,17,36,16.00
2013,05,01,17,37,16.00
2013,05,01,17,38,15.90
2013,05,01,17,39,15.90
2013,05,01,17,40,15.90
2013,05,01,17,41,15.80
2013,05,01,17,42,15.80
2013,05,01,17,43,15.70
2013,05,01,17,44,15.70
2013,05,01,17,45,15.70